Погода в Славгороде

Хотите узнать прогноз погоды в Славгороде? Тогда Вам сюда: Погода в Славгороде

Поиск расширенной информации на нашем сайте:

Полезная информация:

Новости сайта



14.11.2019
Обновлён Долгосрочный прогноз погоды по России и другим странам хСССР на ноябрь-декабрь 2019 года.
Опубликованы прогностические карты: Предварительный прогноз на декабрь 2019 года, Предварительный прогноз на январь 2020 года, Предварительная схема синоптических процессов на декабрь 2019 г..

11.11.2019
Обновлены Долгосрочный прогноз погоды по России и другим странам хСССР на ноябрь-декабрь 2019 года и Предварительный прогноз на зиму 2019/2020 годов

04.11.2019
Опубликован Долгосрочный прогноз погоды по России и другим странам хСССР на ноябрь 2019 года
Сравнение прогнозируемой аномалии приземной температуры воздуха на ноябрь 2019 года по разным моделям
Предварительный прогноз на зиму 2019/2020 года




Погода в Славгороде - сегодня

Время (UTC), дата Ветер
(°,м/с) 
Видим.   Явления Облачность Т
(°С)
Тd
(°С)
f(%) Тe
(°С)
Pmin
(гПа)
dP
(гПа)
Po
(мм)
O2
(г/м3)
Тmin Tmax R s Состояние
почвы
06 16.11.19 210 (ЮЗ) 20000 м    10/0 верхняя 
[Ci sp]
-14.2 -18.5 70 -20  1048.1  -1.2  773  330           
12 16.11.19 200 (Ю) 8-11{11}  20000 м  позёмок  10/0 верхняя 
[Ci sp]
-11.9 -17.6 63 -19  1042.4  -2.9  769  325    -11.4       
00 17.11.19 240 (ЮЗ) 20000 м    10/10 800 м 
[Sc]
-5.5 -11.1 65 -8  1030  -1.1  760  314  -12.1      равномерный
сухой снег
100% 
03 17.11.19 240 (ЮЗ) 20000 м    10/10 1020 м 
[Sc]
-4.8 -8.7 74 -8  1029.2  -0.8  760  312           
06 17.11.19 240 (ЮЗ) 20000 м    10/10 750 м кучево-дожд. 
[Cb cap]
-4.2 -8.5 72 -8  1028.2  -1  759  311           
09 17.11.19 220 (ЮЗ) 6{11}  20000 м    10/3 1000 м верхняя 
[Sc|Ci sp]
-4.5 -10.2 64 -9  1025.8  -2.4  757  311           
12 17.11.19 240 (ЮЗ) 4{11}  20000 м    10/10 660 м кучево-дожд. 
[Cb cap]
-5.1 -9.3 72 -8  1023.8  -2  756  311    -4.1       
15 17.11.19 220 (ЮЗ) 20000 м    10/10 600 м кучево-дожд. 
[Cb cap]
-4.6 -8.2 76 -8  1020.6  -3  753  310           
00 18.11.19 260 (З) 4000 м  слаб. ливневой снег  10/10 600 м кучево-дожд. 
[Cb cap]
-2.8 -4.1 91 -6  1015.6  -1  750  306  -5.1    равномерный
сухой снег
100% 
12 18.11.19 260 (З) 20000 м  позёмок{ливн. осадки}  10/10 630 м кучево-дожд. 
[Cb cap]
-3.5 -7 77 -7  1015.6  0.6  750  307    -1.6     
00 19.11.19 300 (СЗ) 10 км  слаб. ливневой снег  10/10 600 м кучево-дожд. 
[Cb cap]
-9.3 -11.8 82 -15  1016.3  0.1  750  314  -9.3    0.6  равномерный
сухой снег
100% 
06 19.11.19 310 (СЗ) 20000 м  {ливн. осадки}  3/0 верхняя 
[Ci sp]
-19.6 -23.8 69 -26  1021.8  1.7  753  329           
09 19.11.19 320 (СЗ) 20000 м    4/0 верхняя 
[Ci sp]
-20.7 -25.7 64 -26  1023  1.1  754  331           
12 19.11.19 310 (СЗ) 20000 м    3/0 верхняя 
[Ci sp]
-23.8 -27.8 70 -30  1024.3  1.1  755  335    -9.4  0.2     
15 19.11.19 260 (З) 20000 м    ясно 
-28.3 -31.9 71 -29  1026.1  1.5  756  342           
18 19.11.19 320 (СЗ) 20000 м    ясно 
-31 -34.9 68 -35  1027  0.6  757  346           
21 19.11.19 300 (СЗ) 20000 м    3/0 верхняя 
[Ci sp]
-30.9 -34.8 69 -35  1027.7  0.7  757  346           
00 20.11.19 310 (СЗ) 20000 м    10/3 600 м кучево-дожд., верхняя 
[Cb cap|Ci sp]
-26.2 -30 70 -31  1029.1  1.7  758  340  -31.6      равномерный
сухой снег
100% 
03 20.11.19 300 (СЗ) 20000 м  {ливн. осадки}  4/0 верхняя 
[Ci sp]
-29.7 -33.6 69 -33  1031.1  1.7  760  345           
06 20.11.19 300 (СЗ) 20000 м    8/0 верхняя 
[Ci sp]
-25.5 -31.1 59 -32  1032.6  1.8  761  340           
09 20.11.19 300 (СЗ) 20000 м    ясно 
-24.3 -30.2 58 -29  1033.7  1.2  762  339           
15 20.11.19 270 (З) 20000 м    8/0 верхняя 
[Ci sp]
-27.7 -31.7 69 -31  1036.5  0.9  764  344           
18 20.11.19 260 (З) 20000 м    10/0 верхняя 
[Ci sp]
-25.1 -28.8 71 -28  1036.7  0.4  764  341           
21 20.11.19 270 (З) 20000 м    3/0 верхняя 
[Ci sp]
-26.3 -29.9 72 -30  1037  0.2  764  343           
00 21.11.19 250 (З) 20000 м    3/0 верхняя 
[Ci sp]
-26.4 -29.8 73 -30  1037.6  0.6  765  343  -28.7      равномерный
сухой снег
100% 
Время (UTC), дата Ветер
(°,м/с) 
Видим.   Явления Облачность Т
(°С)
Тd
(°С)
f(%) Тe
(°С)
Pmin
(гПа)
dP
(гПа)
Po
(мм)
O2
(г/м3)
Тmin Tmax R s Состояние
почвы

Для получения пояснительной информации подведите курсор к названию столбца.

ПОГОДА в Славгороде - архив

Всё, что Вы хотите узнать о погоде в Славгороде - удобно и подробно!

Выберите нужную дату (начиная с 1 января 2019* года) и нажмите кнопку "Найти".
Будут отображены архивные сводки погоды по пункту Славгород, начиная с указанной даты.


Отображать данные в формате CSV (для использования в таблицах Excel)


Внимание! Наш архив погоды предназначен исключительно для личного некоммерческого использования в познавательных целях. Если Вам необходимы официальные справки о состоянии погоды (для производственных, юридических, коммерческих и т.п. целей), обращайтесь в органы Росгидромета.

*Примечание: данная дата относится к архиву по метеостанциям СССР (Россия, СНГ, Балтия).
Архив по метеостанциям Зарубежной Европы и Азии (кроме Китая) хранится 10 дней, по другим регионам земного шара (Китай, Африка, Америка, Австралия, Океания) - 1 день.

Славгород - район местоположения метеостанции


Название, широта, долгота, высота метеостанции:
Славгород 53°ш. 78.6°д. 126 м над ур. моря [Российская Федерация]

Дополнительная информация

В oтличие oт бoльшинства пoгoдных сайтoв мы публикуем пoдрoбную метеoинфoрмацию в детальнoм прoфессиoнальнoм фoрмате.

Характеристики температуры и влажнoсти вoздуха измеряются на высoте 2 м в тени вдали oт зданий и деревьев.
Скoрoсть ветра измеряется на высoте 10 м (на урoвне рoста челoвека скoрoсть ветра ниже в 1.5-2 раза). Если метеoстанция нахoдится в гoрoде или в лесу, тo скoрoсть ветра занижена на 2-4 м/с пo сравнению с oткрытым местoм. Скoрoсть ветра над акватoриями крупных рек и oзёр, а также на вершинах хoлмoв на 2-5 м/с выше, чем в oбычных услoвиях.
Атмoсфернoе давление в разных тoчках местнoсти мoжет значительнo oтличаться oт давления на метеoстанции, в зависимoсти oт услoвий рельефа (при пoдъёме на 10 м давление пoнижается примернo на 1 мм рт.ст.).